Location: Central Falls
(41.8900°N, 71.3929°W)
Time: 11:09:20
(UTC+00:00)

A-11 Canister half - Pass Details

Date: 06 December 2023
Orbit: 1526 x 1682 km, 47.3° (Epoch: 20 February)

Event Time Altitude Azimuth Distance (km) Brightness Sun altitude
Rises 21:34:21 0° 200° (SSW) 4,890 12.4 -4.1°
Reaches altitude 10° 21:37:53 10° 191° (S) 3,918 11.7 -4.7°
Maximum altitude 21:46:31 34° 132° (SE) 2,526 10.0 -6.1°
Drops below altitude 10° 21:55:11 10° 73° (ENE) 3,937 10.5 -7.6°
Enters shadow 21:55:42 - 71° (ENE) 4,075 10.5 -7.7°
Sets 21:58:42 0° 64° (ENE) 4,917 - -8.2°
